Date,TemperatureHighF,TemperatureAvgF,TemperatureLowF,DewpointHighF,DewpointAvgF,DewpointLowF,HumidityHigh,HumidityAvg,HumidityLow,PressureMaxIn,PressureMinIn,WindSpeedMaxMPH,WindSpeedAvgMPH,GustSpeedMaxMPH,PrecipitationSumIn
2014-1-1,50,36,26,27,20,16,70,54,33,30.42,30.12,17,5,17,0.00
2014-1-2,36,32,28,30,26,18,96,78,59,30.12,29.65,28,4,28,0.00
2014-1-3,28,18,13,17,3,-1,66,52,38,30.51,29.73,36,9,36,0.00
2014-1-4,36,23,11,16,9,2,76,56,40,30.52,30.31,14,6,14,0.01
2014-1-5,46,37,28,44,34,16,98,87,60,30.32,29.67,27,4,27,0.47
2014-1-6,48,28,1,44,16,-15,95,61,40,30.10,29.52,40,18,40,0.03
2014-1-7,17,7,-1,-6,-11,-16,57,43,32,30.53,30.10,24,9,24,0.00
2014-1-8,33,21,9,13,4,-7,62,47,38,30.65,30.51,12,5,12,0.00
2014-1-9,42,33,26,22,18,13,72,54,40,30.65,30.52,12,3,12,0.00
2014-1-10,43,36,31,42,33,20,98,89,63,30.52,30.14,6,2,6,0.24
2014-1-11,54,48,39,53,45,31,98,91,59,30.14,29.47,34,8,34,0.44
2014-1-12,47,42,38,32,28,25,66,58,47,30.12,29.64,29,9,29,0.03
2014-1-13,56,45,37,37,31,27,70,59,42,30.11,29.86,18,6,18,0.00
2014-1-14,48,43,38,42,36,29,95,78,55,29.93,29.72,32,5,32,0.08
2014-1-15,47,37,30,35,29,25,93,75,59,30.00,29.87,20,5,20,0.00
2014-1-16,36,29,22,28,17,13,93,60,44,30.05,29.90,16,6,16,0.00
2014-1-17,46,36,27,30,23,16,92,60,38,29.98,29.84,23,6,23,0.00
2014-1-18,30,23,18,28,10,5,91,58,47,30.01,29.88,26,9,26,0.00
2014-1-19,39,32,22,26,21,12,79,65,53,29.97,29.79,31,9,31,0.00
2014-1-20,53,43,34,26,22,18,71,45,29,29.86,29.70,31,11,31,0.00
2014-1-21,35,26,16,28,23,13,95,88,71,29.90,29.68,23,8,23,0.00
2014-1-22,16,11,5,13,-1,-10,87,57,38,30.13,29.90,16,5,16,0.01
2014-1-23,18,12,6,8,-3,-9,76,51,36,30.54,30.12,33,9,33,0.00
2014-1-24,19,10,2,-1,-6,-10,57,47,36,30.62,30.13,21,8,21,0.00
2014-1-25,30,23,13,22,9,-4,89,56,38,30.12,29.52,48,11,48,0.00
2014-1-26,37,25,14,17,4,-4,52,41,31,29.92,29.76,38,8,38,0.00
2014-1-27,46,34,14,32,14,-12,62,46,22,30.19,29.71,34,12,34,0.01
2014-1-28,16,11,7,8,-5,-12,87,51,35,30.42,30.19,26,5,26,0.00
2014-1-29,26,15,7,8,-2,-12,89,51,24,30.40,30.26,15,5,15,0.00
2014-1-30,30,19,7,8,0,-8,56,43,32,30.49,30.22,14,5,14,0.00
2014-1-31,49,36,23,17,10,4,51,35,21,30.24,30.14,15,6,15,0.00
2014-2-1,54,42,31,25,20,14,63,43,25,30.27,30.03,20,5,20,0.00
2014-2-2,60,50,41,47,36,20,92,59,38,30.04,29.94,20,5,20,0.05
2014-2-3,45,36,32,43,34,31,98,94,86,30.34,29.96,21,8,21,1.77
2014-2-4,33,30,29,32,30,28,97,96,94,30.46,30.16,7,2,7,0.01
2014-2-5,49,35,29,44,30,18,98,82,59,30.16,29.73,40,9,40,0.36
2014-2-6,37,29,24,22,18,15,75,64,50,30.36,30.16,17,4,17,0.00
2014-2-7,40,31,23,22,18,16,74,60,43,30.38,30.25,17,7,17,0.00
2014-2-8,38,30,26,28,23,17,84,76,65,30.36,30.16,12,3,12,0.00
2014-2-9,41,32,26,34,26,21,88,78,61,30.19,29.96,26,7,26,0.00
2014-2-10,36,29,21,21,14,6,68,54,33,30.33,30.07,15,4,15,0.00
2014-2-11,31,22,15,14,11,9,76,64,48,30.50,30.31,10,4,10,0.00
2014-2-12,23,18,12,16,11,7,92,75,58,30.52,30.17,14,4,14,0.00
2014-2-13,37,28,18,33,24,16,96,87,51,30.17,29.50,51,16,51,0.06
2014-2-14,50,41,34,30,19,12,70,42,22,29.73,29.56,34,14,34,0.01
2014-2-15,39,31,23,33,24,10,96,75,48,30.04,29.59,36,10,36,0.15
2014-2-16,35,28,22,25,16,10,68,60,52,30.25,29.99,30,11,30,0.00
2014-2-17,36,27,19,24,16,12,93,63,42,30.46,30.20,17,5,17,0.00
2014-2-18,54,41,26,27,20,10,94,51,19,30.20,30.07,44,12,44,0.03
2014-2-19,60,49,40,45,30,17,87,50,29,30.13,29.75,52,10,52,0.04
2014-2-20,49,44,36,40,28,19,74,54,36,30.23,29.93,15,5,15,0.00
2014-2-21,58,51,43,55,35,16,95,60,24,30.00,29.68,33,10,33,0.35
2014-2-22,58,48,39,22,18,14,43,32,18,30.13,30.00,42,8,42,0.00
2014-2-23,63,52,44,33,25,20,63,37,22,30.04,29.83,20,7,20,0.00
2014-2-24,45,36,29,32,11,-5,63,37,16,30.15,29.92,50,12,50,0.00
2014-2-25,39,30,27,20,13,6,66,49,39,30.13,29.99,27,7,27,0.00
2014-2-26,33,28,23,19,10,1,66,47,27,30.03,29.84,23,8,23,0.00
2014-2-27,36,26,19,8,2,-6,58,37,21,30.12,29.71,40,12,40,0.00
2014-2-28,32,20,8,11,5,-1,74,54,39,30.40,30.12,14,5,14,0.00
2014-3-1,49,34,20,29,17,8,64,50,31,30.38,30.21,13,6,13,0.00
2014-3-2,60,44,35,49,36,24,97,74,53,30.21,29.93,21,6,21,0.46
2014-3-3,35,19,9,34,17,6,97,93,88,30.41,29.94,20,2,20,0.41
2014-3-4,28,17,4,21,12,0,91,81,65,30.49,30.28,5,1,5,0.07
2014-3-5,42,29,18,26,19,14,85,67,42,30.40,30.21,13,4,13,0.06
2014-3-6,31,26,20,21,17,12,79,67,58,30.53,30.36,14,7,14,0.00
2014-3-7,38,30,23,30,25,19,90,82,74,30.36,30.02,14,5,14,0.00
2014-3-8,61,47,30,39,30,25,86,57,30,30.06,29.92,20,6,20,0.00
2014-3-9,54,47,42,35,27,18,66,46,26,30.08,29.94,20,10,20,0.00
2014-3-10,66,53,40,31,27,21,59,39,22,30.00,29.71,32,9,32,0.00
2014-3-11,68,59,55,42,36,30,53,43,35,29.75,29.62,21,6,21,0.00
2014-3-12,64,52,30,54,37,19,87,58,41,29.65,29.07,46,12,46,0.05
2014-3-13,31,25,16,19,1,-8,64,36,24,30.24,29.56,46,18,46,0.00
2014-3-14,58,43,25,25,16,5,47,34,24,30.27,29.94,28,11,28,0.00
2014-3-15,60,53,44,35,27,20,59,38,23,30.06,29.84,38,12,38,0.00
2014-3-16,49,36,25,31,27,23,96,71,37,30.13,30.01,21,9,21,0.01
2014-3-17,25,23,20,24,22,19,95,94,94,30.13,29.98,17,8,17,0.00
2014-3-18,34,28,24,32,27,22,96,95,92,30.27,30.11,10,4,10,0.18
2014-3-19,37,34,30,36,32,26,97,93,76,30.25,30.07,7,3,7,0.02
2014-3-20,52,44,37,36,26,16,96,54,25,30.07,29.92,41,13,41,0.00
2014-3-21,64,49,37,37,29,22,69,48,23,30.08,29.96,39,8,39,0.00
2014-3-22,64,56,43,36,25,10,73,35,12,30.00,29.86,43,10,43,0.00
2014-3-23,52,40,30,32,26,14,80,60,31,30.19,29.98,30,7,30,0.00
2014-3-24,43,31,20,14,10,1,62,43,19,30.32,30.10,22,6,22,0.00
2014-3-25,32,28,24,27,20,7,95,75,36,30.15,29.87,17,4,17,0.10
2014-3-26,32,26,20,20,9,3,72,49,34,30.37,29.98,31,11,31,0.01
2014-3-27,48,36,22,24,17,9,67,47,34,30.45,30.20,23,9,23,0.01
2014-3-28,59,51,41,51,42,22,95,73,39,30.20,30.02,23,10,23,0.07
2014-3-29,55,49,45,49,47,44,98,93,81,30.10,29.60,14,5,14,0.58
2014-3-30,47,41,34,46,32,21,98,71,40,29.97,29.60,43,17,43,0.07
2014-3-31,65,52,40,30,22,15,46,33,20,30.16,29.97,29,9,29,0.00
2014-4-1,76,58,39,41,31,24,64,36,16,30.15,29.91,27,6,27,0.00
2014-4-2,73,63,55,46,38,30,65,40,32,30.09,29.97,14,5,14,0.00
2014-4-3,65,57,50,51,48,45,94,75,52,30.10,29.88,14,3,14,0.07
2014-4-4,68,58,53,56,52,49,95,82,52,29.89,29.65,24,6,24,0.03
2014-4-5,59,49,42,49,30,24,72,49,34,30.16,29.71,30,11,30,0.00
2014-4-6,59,45,33,34,27,24,71,50,32,30.27,30.12,12,3,12,0.00
2014-4-7,50,44,40,49,40,26,98,87,42,30.14,29.59,20,3,20,0.59
2014-4-8,56,51,46,50,41,35,97,69,50,29.74,29.50,34,11,34,0.00
2014-4-9,58,51,43,36,33,28,68,50,34,30.10,29.72,31,8,31,0.00
2014-4-10,68,55,38,37,32,28,68,44,26,30.23,30.02,24,9,24,0.00
2014-4-11,76,63,55,52,41,34,76,46,25,30.09,29.91,32,9,32,0.02
2014-4-12,72,62,52,52,50,47,86,66,44,30.25,30.05,17,6,17,0.00
2014-4-13,80,68,55,54,50,41,75,55,29,30.11,29.96,23,8,23,0.00
2014-4-14,70,64,60,56,54,52,80,70,58,29.97,29.74,27,12,27,0.00
2014-4-15,62,50,30,60,44,16,97,81,52,30.06,29.52,35,11,35,0.87
2014-4-16,46,35,25,25,19,14,68,52,34,30.54,30.05,20,8,20,0.00
2014-4-17,56,42,31,32,24,18,69,49,31,30.65,30.49,12,4,12,0.00
2014-4-18,61,46,34,42,36,30,91,70,45,30.53,30.27,12,3,12,0.00
2014-4-19,60,53,43,44,40,37,84,63,48,30.30,30.22,23,8,23,0.00
2014-4-20,63,52,43,38,34,29,61,49,34,30.41,30.26,17,6,17,0.00
2014-4-21,73,56,40,44,35,31,76,48,26,30.26,29.89,12,3,12,0.00
2014-4-22,70,63,56,52,44,35,63,49,37,29.89,29.59,28,8,28,0.00
2014-4-23,60,51,45,35,31,28,55,47,39,30.03,29.67,29,13,29,0.00
2014-4-24,63,50,38,34,29,24,69,45,25,30.17,30.00,12,4,12,0.00
2014-4-25,59,54,48,56,41,27,97,65,36,30.01,29.69,23,3,23,0.74
2014-4-26,73,62,50,47,40,34,74,45,31,29.91,29.80,43,13,43,0.00
2014-4-27,70,58,46,49,43,36,84,61,41,30.07,29.89,12,5,12,0.00
2014-4-28,56,50,47,47,42,36,96,75,53,30.07,29.93,7,2,7,0.15
2014-4-29,47,46,45,47,46,44,98,97,96,30.16,29.99,12,4,12,1.13
2014-4-30,57,50,45,55,49,44,99,97,93,30.16,29.86,12,4,12,0.21
2014-5-1,70,62,54,57,48,36,98,65,35,29.89,29.73,24,8,24,0.04
2014-5-2,66,56,46,41,36,32,68,47,31,29.88,29.78,20,7,20,0.00
2014-5-3,67,59,48,43,38,35,70,47,34,29.89,29.76,22,7,22,0.00
2014-5-4,73,63,52,45,39,32,56,42,31,29.91,29.74,55,17,55,0.00
2014-5-5,60,51,44,48,40,30,89,69,35,30.03,29.90,13,3,13,0.07
2014-5-6,74,59,48,57,51,44,92,75,50,30.02,29.89,12,4,12,0.00
2014-5-7,74,65,57,58,53,50,91,68,47,30.14,30.03,18,4,18,0.00
2014-5-8,87,72,54,62,52,44,92,54,24,30.13,29.97,20,4,20,0.00
2014-5-9,83,74,62,62,53,46,87,49,35,30.06,29.89,21,6,21,0.03
2014-5-10,72,66,60,62,58,54,95,77,63,30.02,29.92,25,6,25,0.23
2014-5-11,80,68,56,60,56,52,90,69,45,30.14,29.99,15,4,15,0.00
2014-5-12,82,71,62,68,62,56,87,73,54,30.13,30.05,17,3,17,0.03
2014-5-13,88,70,63,68,63,59,92,79,48,30.12,30.00,29,3,20,1.03
2014-5-14,77,68,60,69,64,59,96,86,72,30.14,30.04,12,3,12,0.00
2014-5-15,69,64,61,64,62,60,98,94,80,30.08,29.87,17,3,17,1.38
2014-5-16,66,58,50,48,43,37,84,58,43,29.99,29.83,20,4,20,0.15
2014-5-17,62,53,44,42,35,29,76,52,31,30.19,29.98,20,7,20,0.00
2014-5-18,65,54,43,42,37,33,73,54,37,30.26,30.19,12,4,12,0.00
2014-5-19,69,57,43,45,38,33,75,51,32,30.34,30.19,9,2,9,0.00
2014-5-20,75,62,50,57,49,41,86,63,35,30.23,30.00,8,2,8,0.00
2014-5-21,78,70,60,62,58,54,81,67,52,30.01,29.87,17,4,17,0.00
2014-5-22,80,72,64,64,58,49,84,62,38,29.91,29.82,32,7,32,0.00
2014-5-23,76,66,56,54,48,42,77,55,33,30.05,29.89,28,6,28,0.00
2014-5-24,74,63,52,53,47,42,76,57,41,30.15,30.03,12,4,12,0.00
2014-5-25,78,67,53,55,50,46,79,57,40,30.18,30.07,10,2,10,0.00
2014-5-26,83,71,57,60,56,52,86,60,38,30.15,29.95,15,4,15,0.00
2014-5-27,83,72,66,69,62,56,91,73,57,30.01,29.86,15,4,15,0.13
2014-5-28,86,74,64,66,62,58,88,68,44,29.98,29.87,17,4,17,0.00
2014-5-29,68,62,58,62,60,58,98,92,74,30.10,29.96,7,1,7,0.27
2014-5-30,68,62,58,62,59,56,98,92,80,30.15,30.06,7,1,7,0.02
2014-5-31,76,66,54,57,53,50,94,67,45,30.23,30.13,9,3,9,0.00
2014-6-1,71,63,54,58,53,49,88,72,57,30.32,30.20,12,3,12,0.00
2014-6-2,80,67,53,65,58,50,92,75,56,30.26,30.05,10,3,10,0.00
2014-6-3,80,70,62,69,63,57,95,78,64,30.06,29.87,10,3,10,0.12
2014-6-4,82,71,64,67,63,60,97,76,50,29.90,29.66,21,3,21,0.22
2014-6-5,76,68,59,64,58,50,97,74,45,29.87,29.59,16,4,16,0.01
2014-6-6,79,66,54,58,54,49,87,65,44,29.99,29.87,8,2,8,0.00
2014-6-7,82,69,57,61,56,51,82,65,45,30.05,29.92,7,1,7,0.00
2014-6-8,77,69,59,67,63,57,94,82,70,29.95,29.77,18,4,18,0.00
2014-6-9,80,71,63,65,62,60,96,76,54,29.89,29.82,10,3,10,0.00
2014-6-10,84,74,64,71,66,61,95,79,61,29.91,29.84,9,2,9,0.00
2014-6-11,80,70,62,71,65,61,96,86,62,29.95,29.83,15,2,15,0.25
2014-6-12,78,69,63,70,65,62,98,89,69,29.91,29.79,9,1,9,0.02
2014-6-13,83,71,64,66,62,57,96,77,47,29.87,29.73,25,3,25,0.01
2014-6-14,80,68,59,58,50,42,77,55,30,30.10,29.86,15,4,15,0.00
2014-6-15,82,66,53,65,57,49,87,73,55,30.19,30.06,10,1,10,0.00
2014-6-16,88,76,64,70,66,62,94,71,48,30.14,30.02,9,1,9,0.00
2014-6-17,89,78,65,70,66,61,89,70,49,30.11,29.98,14,2,14,0.00
2014-6-18,91,82,71,69,64,61,75,57,40,30.02,29.95,21,4,21,0.00
2014-6-19,86,78,67,69,65,60,91,65,48,30.01,29.91,31,7,31,0.00
2014-6-20,84,71,64,69,66,63,97,85,59,30.02,29.89,8,0,8,1.51
2014-6-21,80,70,64,73,67,63,98,91,70,29.90,29.78,20,1,20,0.27
2014-6-22,77,68,61,65,63,61,98,86,64,30.00,29.85,8,2,8,0.08
2014-6-23,75,68,60,67,63,59,97,86,74,30.10,29.99,9,1,9,0.00
2014-6-24,82,72,61,71,66,60,97,81,63,30.11,29.96,14,2,14,0.00
2014-6-25,82,74,66,72,68,64,98,82,64,29.99,29.81,15,3,15,0.02
2014-6-26,85,74,68,71,66,62,93,76,51,30.00,29.88,10,1,10,0.07
2014-6-27,85,74,62,67,64,60,95,74,47,30.13,30.00,1,0,0,0.00
2014-6-28,79,72,67,69,66,62,94,82,65,30.22,30.13,10,2,10,0.00
2014-6-29,76,69,63,64,62,60,94,80,58,30.22,30.10,14,2,14,0.00
2014-6-30,83,76,66,72,68,62,89,77,63,30.08,29.92,10,2,10,0.00
2014-7-1,88,78,67,74,69,65,95,77,53,29.96,29.80,10,1,10,0.00
2014-7-2,88,78,68,74,70,66,94,79,55,29.93,29.81,13,2,13,0.00
2014-7-3,84,72,66,73,68,64,97,89,65,29.98,29.87,14,1,14,0.64
2014-7-4,75,68,61,67,55,47,97,66,42,30.21,29.97,20,4,20,0.08
2014-7-5,78,66,53,53,49,43,78,56,34,30.31,30.17,1,0,0,0.00
2014-7-6,82,70,56,63,57,49,79,64,46,30.17,29.95,14,2,14,0.00
2014-7-7,86,75,64,67,62,58,80,65,48,29.97,29.81,18,3,18,0.00
2014-7-8,88,75,67,68,64,60,90,69,45,29.88,29.73,40,5,40,0.16
2014-7-9,82,74,65,71,65,59,95,75,51,29.97,29.83,20,3,20,0.01
2014-7-10,82,72,64,67,63,58,96,74,51,30.11,29.96,12,2,12,0.15
2014-7-11,82,69,58,69,64,57,98,85,59,30.22,30.11,7,2,7,0.01
2014-7-12,84,74,64,71,66,62,95,79,56,30.20,30.07,16,2,16,0.00
2014-7-13,86,76,67,74,69,65,94,80,58,30.08,29.90,18,2,18,0.13
2014-7-14,85,76,69,72,69,66,95,80,55,29.92,29.79,20,3,20,0.04
2014-7-15,79,72,68,70,66,57,96,83,63,29.81,29.71,13,1,13,0.09
2014-7-16,80,68,60,58,54,48,80,60,40,29.96,29.80,10,2,10,0.10
2014-7-17,78,68,59,58,54,49,78,61,41,30.13,29.95,5,0,5,0.00
2014-7-18,76,68,60,63,58,50,91,71,60,30.22,30.13,9,1,9,0.03
2014-7-19,73,65,62,63,62,59,98,89,62,30.19,30.12,4,0,4,0.19
2014-7-20,73,66,59,65,62,58,97,87,73,30.14,30.06,6,1,6,0.12
2014-7-21,81,72,65,70,66,63,94,85,66,30.17,30.08,9,1,9,0.00
2014-7-22,84,74,67,72,69,66,98,85,66,30.16,30.03,10,1,10,0.19
2014-7-23,88,76,69,74,69,65,94,78,51,30.05,29.81,18,3,18,0.00
2014-7-24,76,68,64,68,65,63,97,92,67,29.97,29.83,9,1,9,0.69
2014-7-25,80,69,59,66,62,57,97,79,54,30.08,29.96,10,1,10,0.00
2014-7-26,86,74,65,68,65,62,95,76,47,29.99,29.86,13,1,13,0.00
2014-7-27,79,71,65,70,67,62,97,87,71,29.90,29.66,20,3,20,0.08
2014-7-28,73,69,62,67,58,51,89,69,55,29.87,29.62,26,8,26,0.03
2014-7-29,72,62,52,55,52,49,93,71,49,30.05,29.86,18,2,18,0.00
2014-7-30,74,60,52,58,52,48,87,77,54,30.08,30.02,7,0,7,0.00
2014-7-31,80,68,56,62,57,53,90,70,42,30.12,30.06,12,2,12,0.00
2014-8-1,74,67,63,65,61,59,97,83,68,30.17,30.10,8,1,8,0.19
2014-8-2,75,67,59,65,62,58,96,85,66,30.15,30.04,2,0,2,0.04
2014-8-3,82,71,62,65,62,60,96,76,49,30.08,29.98,1,0,1,0.00
2014-8-4,82,71,60,64,61,57,93,73,48,30.11,30.03,0,0,0,0.00
2014-8-5,80,70,61,69,64,59,95,82,60,30.08,29.96,10,0,10,0.02
2014-8-6,76,69,61,67,62,59,93,81,66,29.98,29.90,15,1,15,0.02
2014-8-7,82,70,60,64,60,56,92,71,49,30.06,29.94,10,1,10,0.00
2014-8-8,77,69,61,65,59,54,93,73,56,30.11,30.03,10,0,10,0.00
2014-8-9,76,67,62,66,63,61,97,88,69,30.11,30.05,10,1,10,0.00
2014-8-10,73,66,62,66,63,60,96,89,76,30.13,30.07,5,0,5,0.00
2014-8-11,67,65,62,64,62,60,98,92,82,30.10,29.99,0,0,0,0.36
2014-8-12,78,69,62,72,66,62,99,92,76,29.99,29.73,23,2,23,0.53
2014-8-13,74,66,60,65,58,52,93,74,56,29.96,29.78,24,5,24,0.00
2014-8-14,76,65,53,61,54,50,92,68,43,29.98,29.90,21,4,21,0.00
2014-8-15,79,66,52,59,52,46,92,63,34,30.02,29.92,13,2,13,0.00
2014-8-16,81,68,52,59,53,47,83,62,42,30.03,29.93,15,2,15,0.00
2014-8-17,81,73,68,67,62,54,81,68,57,29.97,29.89,12,2,12,0.00
2014-8-18,77,70,65,69,65,61,92,84,72,29.92,29.76,1,0,1,0.00
2014-8-19,82,71,65,71,67,64,98,89,65,29.90,29.78,1,0,1,0.16
2014-8-20,84,73,65,71,68,64,98,85,61,30.00,29.88,3,0,3,0.00
2014-8-21,82,73,65,71,66,62,96,78,60,30.05,29.96,0,0,0,0.01
2014-8-22,82,72,66,72,68,64,97,88,66,30.00,29.91,0,0,0,0.03
2014-8-23,78,70,64,71,68,63,98,94,79,30.05,29.91,2,0,2,0.36
2014-8-24,70,65,61,64,62,61,98,92,77,30.14,30.04,0,0,0,0.03
2014-8-25,78,66,55,63,59,55,98,79,53,30.19,30.11,0,0,0,0.00
2014-8-26,82,68,54,62,57,52,96,71,39,30.19,30.09,17,0,17,0.00
2014-8-27,86,72,57,69,62,55,95,73,55,30.10,29.93,8,1,8,0.00
2014-8-28,88,77,64,68,63,55,86,64,40,30.06,29.91,14,0,14,0.00
2014-8-29,81,68,59,64,58,54,84,71,53,30.17,30.06,12,0,12,0.00
2014-8-30,86,74,65,72,67,62,94,80,60,30.17,30.05,13,3,13,0.00
2014-8-31,87,75,68,71,68,64,96,80,53,30.10,29.97,26,2,26,0.00
2014-9-1,88,77,69,69,67,64,91,72,47,30.02,29.92,18,2,18,0.00